TimeEST,TemperatureF,Dew PointF,Humidity,Sea Level PressureIn,VisibilityMPH,Wind Direction,Wind SpeedMPH,Gust SpeedMPH,PrecipitationIn,Events,Conditions,WindDirDegrees,DateUTC
12:51 AM,41.0,28.0,60,29.89,10.0,SSW,11.5,-,N/A,,Scattered Clouds,200,2013-01-20 05:51:00
1:51 AM,39.9,28.9,65,29.87,10.0,South,9.2,-,N/A,,Scattered Clouds,190,2013-01-20 06:51:00
2:51 AM,39.0,28.9,67,29.86,10.0,SW,10.4,-,N/A,,Partly Cloudy,220,2013-01-20 07:51:00
3:51 AM,37.0,28.9,73,29.83,10.0,SSW,6.9,-,N/A,,Partly Cloudy,200,2013-01-20 08:51:00
4:51 AM,39.0,28.9,67,29.80,10.0,South,4.6,-,N/A,,Clear,180,2013-01-20 09:51:00
5:51 AM,39.0,28.9,67,29.77,10.0,SSW,9.2,-,N/A,,Clear,200,2013-01-20 10:51:00
6:51 AM,39.0,28.9,67,29.75,10.0,SSW,8.1,-,N/A,,Clear,200,2013-01-20 11:51:00
7:51 AM,39.9,28.9,65,29.75,10.0,SW,9.2,-,N/A,,Partly Cloudy,220,2013-01-20 12:51:00
8:51 AM,45.0,28.0,52,29.76,10.0,SW,11.5,-,N/A,,Scattered Clouds,230,2013-01-20 13:51:00
9:51 AM,48.9,28.0,44,29.75,10.0,SW,16.1,24.2,N/A,,Scattered Clouds,230,2013-01-20 14:51:00
10:51 AM,54.0,28.0,37,29.74,10.0,WSW,19.6,29.9,N/A,,Mostly Cloudy,240,2013-01-20 15:51:00
11:51 AM,54.0,27.0,35,29.71,10.0,WSW,19.6,41.4,N/A,,Mostly Cloudy,250,2013-01-20 16:51:00
12:51 PM,55.9,24.1,29,29.70,10.0,West,20.7,39.1,N/A,,Mostly Cloudy,260,2013-01-20 17:51:00
1:51 PM,54.0,19.0,25,29.71,10.0,West,25.3,34.5,N/A,,Mostly Cloudy,260,2013-01-20 18:51:00
2:51 PM,53.1,14.0,21,29.74,10.0,WSW,26.5,38.0,N/A,,Mostly Cloudy,250,2013-01-20 19:51:00
3:51 PM,52.0,14.0,22,29.78,10.0,WNW,23.0,31.1,N/A,,Mostly Cloudy,290,2013-01-20 20:51:00
4:51 PM,48.0,10.9,22,29.82,10.0,WNW,21.9,32.2,N/A,,Scattered Clouds,290,2013-01-20 21:51:00
5:51 PM,44.6,10.4,25,29.87,10.0,West,19.6,34.5,N/A,,Scattered Clouds,280,2013-01-20 22:51:00
6:51 PM,42.1,12.9,31,29.91,10.0,WNW,21.9,29.9,N/A,,Partly Cloudy,290,2013-01-20 23:51:00
7:51 PM,39.0,12.0,33,29.95,10.0,WNW,15.0,23.0,N/A,,Clear,300,2013-01-21 00:51:00
8:51 PM,37.0,14.0,39,29.99,10.0,NW,17.3,26.5,N/A,,Partly Cloudy,310,2013-01-21 01:51:00
9:51 PM,34.0,12.0,40,30.00,10.0,NW,12.7,-,N/A,,Scattered Clouds,310,2013-01-21 02:51:00
10:51 PM,32.0,10.9,42,30.03,10.0,NW,16.1,-,N/A,,Scattered Clouds,310,2013-01-21 03:51:00
11:51 PM,30.0,10.0,43,30.05,10.0,NW,12.7,18.4,N/A,,Partly Cloudy,320,2013-01-21 04:51:00